[[{"header":{"parameterUnit":"m.s-1","parameterCategory":1,"la1":30.2991,"la2":30.254,"lo1":-89.0895,"lo2":-89.0444,"dy":0.0017,"dx":0.0017,"nx":28,"ny":28,"refTime":"2025-11-15T03:00:00:Z","depth":0,"parameterNumber":2,"parameterNumberName":"U-component_of_WINDS"},"data":[0,0,0,0,0,0,0,0,0,0,0,0,0,0,0,0,0,0,0,0,0,0,0,0,0,0,0,0,0,0,0,0,0,0,0,0,0,0,0,0,0,0,0,0,0,0,0,0,0,0,0,0,0,0,0,0,0,0,2.3774,2.3775,0,2.387,2.3871,2.3872,2.3925,2.3925,2.3925,2.3925,2.4026,2.4029,2.4031,0,0,0,0,0,0,0,0,0,0,0,0,0,2.3642,2.3644,2.3774,2.3775,2.3776,2.387,2.3871,2.3872,2.3925,2.3925,2.3925,2.3925,2.4025,2.4028,2.4031,0,0,0,0,0,0,0,0,0,0,0,0,0,2.3715,2.3645,2.3774,2.3814,2.3818,2.3869,2.3871,2.3873,2.3925,2.3925,2.3925,2.3925,2.4024,2.4028,2.4032,2.4052,0,0,2.4044,2.4045,0,0,0,0,0,0,0,0,2.371,2.3719,2.3807,2.3811,2.3816,2.3885,2.3862,2.3933,2.3925,2.3884,2.3925,2.3925,2.3979,2.3987,2.4005,2.4056,2.4061,2.4044,2.4046,2.4048,2.4049,0,0,0,0,0,0,0,2.3705,2.3716,2.3812,2.3808,2.3814,2.3829,2.3839,2.3875,2.393,2.3888,2.3892,2.3902,2.3982,2.4001,2.4007,2.4062,2.4044,2.4047,2.405,2.4051,2.4141,2.4141,0,0,0,0,0,0,2.3693,2.3711,2.3809,2.3815,2.3763,2.3831,2.3843,2.3863,2.3929,2.394,2.3902,2.3904,2.3994,2.4003,2.4011,2.4042,2.4048,2.4051,2.4054,2.4141,2.4141,2.4141,0,0,0,0,0,0,2.369,2.3701,2.3805,2.3764,2.3778,2.3833,2.3855,2.3865,2.3883,2.394,2.395,2.3911,2.3995,2.4006,2.4042,2.4046,2.4053,2.4057,2.4141,2.4141,2.4141,2.4101,0,0,0,0,0,0,2.3686,2.37,2.3706,2.3764,2.378,2.3832,2.3856,2.3867,2.389,2.3894,2.3951,2.3961,2.3996,2.4036,2.4046,2.4051,2.406,2.414,2.4141,2.4141,2.4102,2.41,2.4098,0,0,0,0,0,2.3681,2.3691,2.3706,2.3718,2.3789,2.3832,2.3842,2.3881,2.389,2.3898,2.3935,2.3959,2.4044,2.4039,2.4051,2.4057,2.414,2.4141,2.4141,2.4103,2.41,2.4098,0,0,0,0,0,0,2.3632,2.3699,2.3717,2.3745,2.3783,2.3841,2.3852,2.3876,2.3912,2.3915,2.3963,2.3975,2.4008,2.4037,2.403,2.4083,2.4095,2.4098,2.4063,2.406,2.4058,2.4051,2.4063,0,0,0,0,0,2.3624,2.3652,2.371,2.3729,2.3747,2.3797,2.3817,2.3844,2.3885,2.3902,2.3941,2.3982,2.4018,2.4041,2.4077,2.4107,2.4123,2.4118,2.4116,2.4113,2.4115,2.4138,2.4137,2.4141,2.4141,2.4141,0,0,2.3609,2.3649,2.3663,2.3721,2.3753,2.3783,2.3809,2.3839,2.3863,2.3906,2.3944,2.3975,2.4024,2.4058,2.4075,2.4083,2.4118,2.4114,2.4111,2.4115,2.4138,2.4137,2.4137,2.4141,2.4141,2.4141,0,0,2.3596,2.3628,2.3649,2.3682,2.3731,2.3765,2.377,2.3826,2.3848,2.3887,2.3921,2.3952,2.4012,2.4046,2.4072,2.4078,2.4103,2.4089,2.4076,2.4098,2.4098,2.4098,2.4102,2.4103,2.409,2.409,2.409,0,2.357,2.3616,2.3658,2.3687,2.3712,2.3754,2.3778,2.3808,2.3867,2.3885,2.3892,2.3972,2.4008,2.4053,2.4055,2.4073,2.4083,2.4082,2.4094,2.4094,2.4095,2.41,2.4102,2.4088,2.4088,2.4089,2.4089,0,2.3584,2.3615,2.3627,2.3683,2.3711,2.3737,2.3785,2.3808,2.3834,2.3868,2.3909,2.3954,2.4002,2.4015,2.404,2.4065,2.4069,2.4084,2.4098,2.4092,2.4098,2.41,2.4085,2.4086,2.4087,2.4087,0,0,2.354,2.3622,2.3626,2.3654,2.3713,2.3739,2.377,2.3816,2.3837,2.3877,2.3906,2.3958,2.3975,2.4004,2.4034,2.4053,2.4059,2.4067,2.4069,2.4066,2.4094,2.4082,2.4083,2.4076,2.4077,2.4077,2.409,0,2.3537,2.3591,2.3632,2.3672,2.3704,2.3746,2.3774,2.3814,2.3848,2.3882,2.3919,2.3957,2.3974,2.3993,2.4013,2.4054,2.4065,2.4053,2.4106,2.4107,2.4092,2.4086,2.4073,2.4083,2.4093,2.4093,2.4093,0,2.354,2.358,2.3623,2.3683,2.3698,2.3721,2.377,2.3801,2.385,2.3874,2.3908,2.394,2.3978,2.3988,2.4042,2.4033,2.4058,2.4082,2.4083,2.409,2.41,2.4094,2.4087,2.4089,2.4097,2.4097,2.4096,0,2.3507,2.3571,2.3606,2.3629,2.3699,2.3715,2.3746,2.3795,2.3822,2.3866,2.3885,2.3932,2.3958,2.3995,2.4041,2.4044,2.4092,2.4105,2.4114,2.4113,2.4122,2.4121,2.412,2.4136,2.4136,2.4136,2.4136,0,2.35,2.3525,2.3593,2.3614,2.3646,2.3694,2.3724,2.3759,2.3803,2.3835,2.3875,2.3904,2.3961,2.3999,2.4035,2.4076,2.4087,2.4109,2.4119,2.4106,2.4104,2.4123,2.4124,2.4136,2.4136,2.4136,2.4136,0,2.3467,2.3513,2.3555,2.3619,2.3636,2.3656,2.3713,2.3737,2.3775,2.3814,2.3826,2.3885,2.3931,2.3981,2.4043,2.4068,2.4109,2.4121,2.4092,2.4097,2.4105,2.4104,2.4117,2.4122,2.4133,2.4133,2.4132,0,2.3459,2.348,2.3548,2.3571,2.3601,2.3638,2.3667,2.3717,2.3746,2.3806,2.3824,2.3873,2.3915,2.3988,2.4038,2.4088,2.4103,2.4104,2.411,2.4098,2.4105,2.4104,2.4108,2.4101,2.4101,2.4101,2.4101,0,2.3442,2.3465,2.3504,2.3552,2.3586,2.3626,2.3668,2.3686,2.3745,2.3776,2.3824,2.3857,2.3922,2.3972,2.4029,2.4063,2.4093,2.4099,2.4104,2.4091,2.4074,2.4086,2.4087,2.4098,2.4098,2.4098,2.4098,2.4098,2.3424,2.3446,2.3497,2.3541,2.3578,2.3618,2.3645,2.3687,2.3727,2.3784,2.3812,2.3861,2.3915,2.3994,2.4028,2.4069,2.4077,2.4084,2.4086,2.4087,2.4085,2.4067,2.4079,2.4079,2.4079,2.4079,2.408,0,2.341,2.3447,2.3486,2.3545,2.358,2.3605,2.3655,2.3683,2.3725,2.3772,2.3814,2.3871,2.3921,2.3976,2.403,2.4053,2.4068,2.4065,2.4065,2.4073,2.4073,2.4064,2.4052,2.4052,2.4052,2.4052,2.4052,2.4052,2.3408,2.3447,2.3477,2.3538,2.3575,2.3622,2.3649,2.3687,2.3725,2.3787,2.3829,2.3864,2.3916,2.3975,2.4024,2.4039,2.4058,2.4051,2.4071,2.407,2.4072,2.4074,2.4066,2.4055,2.4055,2.4067,2.4067,2.4067]},{"header":{"parameterUnit":"m.s-1","parameterCategory":1,"la1":30.2991,"la2":30.254,"lo1":-89.0895,"lo2":-89.0444,"dy":0.0017,"dx":0.0017,"nx":28,"ny":28,"refTime":"2025-11-15T03:00:00:Z","depth":0,"parameterNumber":3,"parameterNumberName":"V-component_of_WINDS"},"data":[0,0,0,0,0,0,0,0,0,0,0,0,0,0,0,0,0,0,0,0,0,0,0,0,0,0,0,0,0,0,0,0,0,0,0,0,0,0,0,0,0,0,0,0,0,0,0,0,0,0,0,0,0,0,0,0,0,0,0.6289,0.6289,0,0.6306,0.6306,0.6306,0.6271,0.627,0.6269,0.6268,0.6286,0.6287,0.6289,0,0,0,0,0,0,0,0,0,0,0,0,0,0.6224,0.6225,0.6289,0.6289,0.6289,0.6306,0.6306,0.6306,0.6271,0.627,0.6269,0.6267,0.6285,0.6287,0.6289,0,0,0,0,0,0,0,0,0,0,0,0,0,0.6248,0.6226,0.6289,0.6274,0.6272,0.6306,0.6306,0.6306,0.6272,0.627,0.6268,0.6267,0.6284,0.6287,0.6289,0.6338,0,0,0.6296,0.6297,0,0,0,0,0,0,0,0,0.6247,0.625,0.6276,0.6275,0.6273,0.6285,0.629,0.6317,0.6272,0.6272,0.6268,0.6266,0.6287,0.6289,0.6296,0.6339,0.6339,0.6296,0.6298,0.6299,0.6299,0,0,0,0,0,0,0,0.6245,0.6249,0.6295,0.6276,0.6275,0.6266,0.6267,0.6295,0.6289,0.6272,0.6269,0.6272,0.6286,0.6294,0.6296,0.634,0.6296,0.6298,0.63,0.6301,0.6421,0.6423,0,0,0,0,0,0,0.6245,0.6248,0.6295,0.6296,0.6255,0.6268,0.627,0.6283,0.6288,0.6288,0.6273,0.627,0.629,0.6293,0.6296,0.6352,0.6299,0.6301,0.6302,0.6419,0.6421,0.6423,0,0,0,0,0,0,0.6244,0.625,0.6294,0.6271,0.6276,0.6271,0.6286,0.6284,0.6292,0.6289,0.6288,0.6283,0.6289,0.6293,0.6327,0.6352,0.6302,0.6304,0.6417,0.642,0.6422,0.6465,0,0,0,0,0,0,0.6242,0.625,0.6268,0.6272,0.6278,0.6325,0.6288,0.6286,0.6296,0.6292,0.6298,0.6297,0.6288,0.6324,0.6329,0.6355,0.6306,0.6415,0.6418,0.6422,0.6462,0.6469,0.6476,0,0,0,0,0,0.624,0.628,0.627,0.6275,0.6301,0.6327,0.633,0.6319,0.6298,0.6317,0.6315,0.6297,0.6349,0.6328,0.6334,0.636,0.6413,0.6417,0.6421,0.6459,0.6468,0.6476,0,0,0,0,0,0,0.628,0.6281,0.6269,0.6311,0.6319,0.6321,0.6344,0.6329,0.6344,0.6339,0.6325,0.6326,0.6363,0.6365,0.6341,0.6406,0.6377,0.6383,0.6404,0.6412,0.6419,0.6418,0.6308,0,0,0,0,0,0.6294,0.6315,0.6314,0.6352,0.6356,0.635,0.636,0.6351,0.6359,0.6362,0.6363,0.6371,0.6388,0.6401,0.6417,0.6462,0.6462,0.6483,0.649,0.6496,0.65,0.6522,0.6531,0.6437,0.6437,0.6437,0,0,0.6323,0.6326,0.634,0.636,0.6365,0.6386,0.6353,0.6377,0.6393,0.6366,0.6397,0.6398,0.6406,0.6445,0.6463,0.6448,0.6526,0.6501,0.6505,0.6507,0.6527,0.6536,0.6544,0.6439,0.6439,0.6439,0,0,0.6386,0.6391,0.6422,0.6427,0.6435,0.643,0.6437,0.6441,0.644,0.6472,0.6451,0.6469,0.6501,0.6507,0.6514,0.6578,0.6561,0.6583,0.662,0.6641,0.6649,0.6655,0.6677,0.6684,0.6588,0.6588,0.6588,0,0.6421,0.6452,0.644,0.6465,0.6474,0.645,0.648,0.6486,0.6499,0.6505,0.6489,0.6527,0.6531,0.657,0.6585,0.6592,0.6599,0.6582,0.6649,0.6655,0.6661,0.6681,0.6689,0.6591,0.6591,0.659,0.659,0,0.6494,0.6516,0.654,0.6552,0.6564,0.6592,0.6583,0.6596,0.6585,0.6582,0.6613,0.6617,0.6632,0.6641,0.6632,0.6679,0.6669,0.6651,0.6622,0.6673,0.6691,0.6699,0.6595,0.6594,0.6593,0.6592,0,0,0.6584,0.6587,0.6596,0.66,0.6606,0.6623,0.6649,0.6664,0.6675,0.6685,0.6706,0.6732,0.6715,0.6723,0.6714,0.6733,0.6781,0.6712,0.6712,0.6723,0.6831,0.6844,0.6853,0.677,0.6771,0.6773,0.683,0,0.6645,0.669,0.6678,0.6723,0.6742,0.6719,0.6741,0.6747,0.6744,0.676,0.6757,0.6775,0.6752,0.6756,0.6774,0.6771,0.6802,0.6767,0.6788,0.6789,0.6786,0.6863,0.6877,0.6931,0.6837,0.6839,0.684,0,0.6723,0.6734,0.678,0.6781,0.6789,0.6809,0.6821,0.6837,0.6842,0.6839,0.6847,0.6834,0.6858,0.6829,0.6863,0.6839,0.6847,0.6847,0.6849,0.685,0.6817,0.6865,0.6949,0.6956,0.6851,0.685,0.6849,0,0.6781,0.6808,0.6839,0.6843,0.6846,0.6861,0.6862,0.6866,0.6875,0.6886,0.6892,0.6905,0.6912,0.6923,0.6913,0.6893,0.6947,0.6918,0.6944,0.6945,0.6956,0.6956,0.7041,0.6964,0.6963,0.6963,0.6963,0,0.685,0.6879,0.6865,0.6884,0.6915,0.6901,0.6932,0.6931,0.6934,0.6952,0.6933,0.695,0.6936,0.6952,0.6944,0.6972,0.6976,0.6973,0.697,0.6974,0.6974,0.6978,0.6974,0.6965,0.6965,0.6965,0.6964,0,0.6921,0.6913,0.6944,0.6944,0.6944,0.6967,0.6966,0.6983,0.6978,0.7,0.7005,0.6998,0.7015,0.7006,0.7024,0.7018,0.7054,0.7047,0.7052,0.705,0.7077,0.7074,0.7167,0.7178,0.7095,0.7095,0.7096,0,0.6965,0.6986,0.6988,0.6998,0.7,0.7017,0.7026,0.7013,0.7023,0.703,0.7046,0.7061,0.7073,0.7101,0.7097,0.711,0.7103,0.7135,0.7105,0.7107,0.7102,0.71,0.7101,0.714,0.7141,0.7142,0.7143,0,0.7044,0.7038,0.7052,0.7063,0.7074,0.7083,0.709,0.71,0.7087,0.7099,0.7116,0.7125,0.7142,0.7157,0.7168,0.7169,0.7154,0.7152,0.7159,0.7162,0.7164,0.7162,0.7067,0.715,0.7149,0.7149,0.7148,0.7148,0.7102,0.7119,0.7122,0.7137,0.7141,0.7147,0.7163,0.7159,0.7173,0.7186,0.7177,0.7197,0.7201,0.7214,0.7217,0.7232,0.7219,0.7229,0.7231,0.7234,0.7237,0.7162,0.7234,0.7234,0.7233,0.7233,0.7233,0,0.7178,0.7178,0.7192,0.7202,0.7214,0.7198,0.7205,0.7215,0.7233,0.7237,0.7249,0.7267,0.7281,0.7278,0.7291,0.7303,0.7296,0.7307,0.7305,0.7305,0.7248,0.724,0.7312,0.7312,0.7312,0.7312,0.7312,0.7312,0.7219,0.7246,0.7241,0.727,0.727,0.7289,0.7294,0.7299,0.7303,0.7324,0.7335,0.7333,0.7334,0.7347,0.7358,0.7357,0.7362,0.7375,0.7371,0.7317,0.731,0.7302,0.7295,0.7377,0.7377,0.7427,0.7428,0.7428]}]]